www.pogodaiklimat.ru
ПОГОДА в Индепенденсе
Время
(UTC), дата
06:35 07.12
06:55 07.12
07:15 07.12
07:30 07.12
07:55 07.12
08:15 07.12
08:35 07.12
08:55 07.12
09:15 07.12
09:35 07.12
09:55 07.12
10:15 07.12
10:35 07.12
10:55 07.12
11:15 07.12
11:35 07.12
11:55 07.12
12:15 07.12
12:35 07.12
12:55 07.12
13:15 07.12
13:35 07.12
13:55 07.12
14:15 07.12
14:35 07.12
14:55 07.12
15:15 07.12
15:35 07.12
15:55 07.12
16:15 07.12
16:35 07.12
16:55 07.12
17:15 07.12
17:35 07.12
17:55 07.12
18:15 07.12
18:35 07.12
18:55 07.12
19:15 07.12
19:35 07.12
19:55 07.12
20:15 07.12
20:35 07.12
20:55 07.12
21:15 07.12
21:35 07.12
21:55 07.12
22:15 07.12
Ветер
(напр.,м/с)
Видим. Явления Облачность Т
(С)
Тd
(С)
f
(%)
Тe
(С)
Тes
(С)
Комфортность P
(гПа)
Po
(гПа)
Тmin
(С)
Tmax
(С)
R
(мм)
R24
(мм)
S
(см)
0 16 км ясно -3.5 -4.7 91 -5 -5 998.4
0 16 км ясно -3.2 -4.5 91 -4 -4 998.4
0 16 км ясно -3.3 -4.7 90 -4 -4 998.1
0 16 км ясно -3.3 -4.5 91 -4 -4 998.1
СЗ 1 16 км ясно -3.2 -4.4 91 -7 -7 998.1
СЗ 1 16 км ясно -3.0 -4.3 91 -6 -6 998.1
0 16 км ясно -3.7 -4.7 93 -5 -5 997.7
0 16 км ясно -3.5 -4.7 91 -5 -5 997.7
СВ 1 16 км ясно -4.4 -5.7 91 -8 -8 997.4
СВ 1 16 км ясно -4.1 -5.5 90 -8 -8 997.4
СВ 1 11 км ясно -4.2 -5.0 94 -8 -8 997.4
0 16 км ясно -4.9 -5.9 93 -6 -6 997.4
З 2 16 км ясно -4.9 -5.9 93 -10 -10 997.7
СЗ 2 16 км ясно -4.6 -5.6 93 -10 -10 997.4 -5.3 -1.6
С 2 16 км ясно -5.2 -6.1 93 -10 -10 997.1
СВ 1 16 км ясно -4.6 -5.9 91 -8 -8 997.4
0 16 км ясно -4.7 -5.8 92 -6 -6 997.4
ЮЗ 1 16 км ясно -5.0 -6.1 92 -9 -9 997.4
0 16 км ясно -5.0 -6.0 93 -6 -6 997.4
0 16 км ясно -4.3 -5.2 93 -5 -5 997.4
0 16 км ясно -3.2 -4.1 93 -4 -4 997.4
0 16 км ясно -2.0 -3.3 91 -3 -3 997.4
0 16 км ясно -0.9 -2.4 90 -2 -2 997.4
0 16 км ясно +0.1 -2.2 84 -1 +1 997.4
0 16 км ясно +1.4 -1.5 81 0 +2 997.4
0 16 км ясно +2.8 -0.4 79 +2 +3 997.4
Ю 1 16 км ясно +4.1 0.0 75 +2 +5 997.1
Ю 1 16 км ясно +4.8 +0.4 73 +3 +6 997.1
Ю 3 16 км ясно +5.6 +0.1 68 +3 +5 997.1
ЮВ 2 16 км ясно +6.5 +0.2 64 +4 +8 996.8
Ю 1 16 км ясно +7.1 +0.2 61 +6 +11 996.1
ЮВ 3 16 км ясно +8.6 +0.3 56 +6 +9 995.8 -5.7 +8.8
В 3 16 км ясно +9.3 +0.1 53 +7 +12 995.4
Ю 3 16 км ясно +9.7 -0.5 49 +8 +12 994.8
Ю 2 16 км ясно +10.4 -0.6 46 +9 +14 994.5
Ю 3 16 км ясно +10.9 -1.7 41 +9 +14 993.8
Ю 3 16 км ясно +11.4 -2.7 37 +10 +15 993.5
Ю 3 16 км ясно +12.0 -3.2 34 +11 +15 992.8
Ю 3 16 км ясно +12.4 -2.8 35 +11 +15 992.5
ЮВ 4 16 км ясно +12.5 -3.1 34 +11 +14 992.2
ЮВ 3 16 км ясно +12.4 -3.8 32 +11 +14 991.8
ЮВ 4 16 км ясно +12.4 -4.4 31 +11 +13 991.5
ЮВ 5 16 км ясно +11.8 -3.9 33 +9 +10 991.5
Ю 4 16 км ясно +11.5 -4.1 33 +10 +11 991.5
ЮВ 4 16 км ясно +10.5 -3.5 37 +8 +9 991.2
Ю 3 16 км ясно +8.8 -3.5 42 +7 +7 990.8
Ю 3 16 км ясно +7.7 -3.2 46 +5 +6 990.8
Ю 3 16 км ясно +6.9 -3.3 48 +4 +4 990.8
Местоположение метеостанции Independence Municipal Airport: широта 37.1584 долгота -95.7784 высота над уровнем моря 251 м.
В архиве по умолчанию представлена погода в Индепенденсе за последние 1-2 суток. Обновление информации о фактической погоде в базе происходит ежечасно! Архивные данные за месяц целиком и за предыдущие месяцы Вы можете получить, выбрав интересующий диапазон дат из раскрывающегося списка и нажав кнопку "Ввод!".
Внимание! Архив погоды МЕТАР в базе сайта по станциям, не включенным в климатический монитор, хранится не более 60 дней. Нет смысла пытаться выбрать более раннюю дату.
*Определитесь, кто Вы:
Внимание! Время в таблицах - всемирное. Для получения местного времени необходимо прибавить поправку, которая равна ч.
Смотрите также архив погоды в соседних городах и на ближайших метеорологических станциях:
Партнеры нашего сайта:      
Пояснения к столбцам:
  • Ветер - указаны скорость ветра в м/с - средняя за 10 мин, порывы в срок и между сроками (в фигурных скобках) и направление, откуда дует ветер: С - северный,
  • СВ - северо-восточный, В - восточный, ЮВ - юго-восточный, Ю - южный, ЮЗ - юго-западный, З - западный, СЗ - северо-западный.
  • Видимость - горизонтальная дальность видимости в метрах или километрах. При видимости от 1 до 10 км при отсутствии осадков обычно наблюдается дымка, при ухудшении видимости до 1 км и менее - туман. В сухую погоду видимость может ухудшаться дымом, пылью или мглою.
  • Явления - указаны атмосферные явления, наблюдавшиеся в срок или в последний час перед сроком; фигурными скобками обозначены явления, наблюдавшиеся между сроками (за 1-3 часа до срока); квадратными скобками обозначены град или гололедные отложения с указанием их диаметра в мм.
  • Облачность - указаны через наклонную черту общая и нижняя облачность в баллах и высота нижней границы облаков в метрах; квадратными скобками обозначены формы облаков: Ci - перистые, Cs - перисто-слоистые, Cc - перисто-кучевые, Ac - высококучевые, As - высокослоистые, Sc - слоисто-кучевые, Ns - слоисто-дождевые, Cu - кучевые, Cb - кучево-дождевые. Подробнее классификацию облаков см. в Атласе облаков (PDF).
  • T - Температура воздуха - температура, измеренная на высоте 2 м над землей.
  • Td - Температура точки росы - температура, при понижении до которой содержащийся в воздухе водяной пар достигнет насыщения.
  • f - Относительная влажность воздуха - влажноcть воздуха, измеренная на высоте 2 м над землей.
  • Te - Эффективная температура - температура, которую ощущает одетый по сезону человек в тени. Характеристика душности погоды. При расчете учитывается влияние влажности воздуха и скорости ветра на теплоощущения человека.
  • Tes - Эффективная температура на солнце - температура, которую ощущает человек, с поправкой на солнечный нагрев. Характеристика знойности погоды. Зависит от высоты солнца над горизонтом, облачности и скорости ветра. Ночью, в пасмурную погоду, а также при ветре 12 м/с и более поправка равна нулю.
  • P - Атмосферное давление - приведенное к уровню моря атмосферное давление.
  • Po - Атмосферное давление - измеренное на уровне метеостанции атмосферное давление.
  • Tmin - Минимальная температура - минимум температуры воздуха на высоте 2 м над землей.
  • Tmax - Максимальная температура - максимум температуры воздуха на высоте 2 м над землей.
  • R - Количество осадков - Количество выпавших осадков за период времени, мм. При наведении курсора мыши на число - период времени, за который выпало указанное количество осадков.
  • R24 - Количество осадков - Количество выпавших осадков за 24 часа, мм.
  • S - Снежный покров - Высота снежного покрова, см. При наведении курсора мыши на число - состояние снежного покрова и степень покрытия местности в баллах.